Wind_Speed
49 47 42 44 43 36 33 31 35 30 30 27 25 27 25 23 20 20 21 20 19 21 20 21 24 22 23 28 27 32 27 23 25 18 17 18 22 23 24 25 27 22 19 18 26
52 49 44 42 43 37 35 33 36 36 35 32 27 25 26 21 18 23 23 22 24 27 16 25 28 26 26 28 27 30 28 25 28 29 26 25 27 29 32 30 28 29 28 25 30
53 50 47 43 40 40 38 35 39 37 37 29 26 25 26 25 24 28 28 26 27 29 24 21 24 28 31 28 29 29 26 28 28 26 30 34 34 35 36 38 40 37 31 34 33
57 50 46 44 41 39 38 42 32 36 33 38 30 27 27 25 28 31 31 29 31 32 31 26 31 36 27 24 26 26 27 30 31 33 38 40 44 42 42 44 47 47 42 41 39
58 54 49 43 40 41 36 40 39 35 33 30 30 27 28 32 32 36 33 32 33 32 36 28 36 27 32 30 30 37 32 30 32 37 41 46 50 51 52 52 51 50 48 48 45
61 56 52 48 46 43 44 39 41 40 41 41 40 36 35 34 37 29 30 33 35 28 34 38 33 38 43 43 41 40 38 34 39 46 49 52 56 58 61 60 57 55 52 51 50
60 59 54 50 48 46 44 47 42 43 37 35 36 36 34 33 35 37 30 33 31 36 38 33 38 46 44 44 42 42 39 38 43 48 52 57 58 59 61 61 57 52 52 52 52
65 58 57 55 51 49 47 47 45 43 42 37 34 36 33 32 35 36 34 32 34 34 31 32 43 44 44 47 42 41 45 43 49 52 53 53 49 46 49 52 51 45 46 50 53
64 63 57 53 54 51 49 49 48 46 46 41 40 39 37 37 36 33 32 33 35 36 38 38 41 45 45 43 41 44 49 50 53 54 47 46 46 44 48 50 50 47 47 45 46
64 64 60 54 53 52 49 50 50 47 46 42 39 39 39 39 37 34 31 30 34 32 36 40 46 44 41 40 41 45 48 52 53 47 47 46 46 46 47 48 47 45 45 44 43
68 66 62 56 54 52 50 50 48 44 40 41 43 41 41 37 35 29 28 40 40 42 43 43 47 36 37 40 41 46 48 50 46 46 47 44 43 42 42 41 40 43 42 43 42
71 69 62 57 51 47 48 47 45 45 44 45 44 43 41 35 30 34 37 38 41 41 41 45 33 34 37 40 42 45 48 46 42 39 37 34 30 31 35 36 34 38 40 39 39
71 64 64 59 54 51 47 43 40 40 44 46 46 38 34 32 35 35 40 40 40 37 47 35 34 34 36 39 45 46 47 42 36 33 30 26 19 18 39 40 34 32 35 35 35
69 67 62 60 51 47 47 45 40 36 39 37 37 38 35 43 48 45 42 40 41 46 37 33 33 36 39 44 43 44 43 37 34 30 27 21 18 5 31 33 35 32 31 31 32
72 66 63 60 55 48 47 43 41 43 44 39 35 41 43 46 43 42 38 42 48 35 33 33 34 37 41 43 41 42 39 34 33 29 24 23 22 19 30 33 36 28 28 26 25
76 63 60 63 63 51 51 49 49 52 46 46 46 48 49 43 32 34 40 43 34 31 31 33 35 39 40 40 39 40 35 32 31 28 25 24 23 18 20 29 28 23 20 20 23
69 61 55 53 53 56 55 45 53 52 51 48 40 39 36 36 36 41 36 29 30 28 32 35 39 41 40 38 37 35 33 29 30 28 24 24 21 15 8 21 23 23 21 20 20
71 65 60 57 60 48 47 51 46 50 48 46 43 43 38 42 46 39 28 28 30 30 31 37 39 41 41 36 36 34 31 30 29 29 25 26 25 22 19 20 21 20 18 20 19
72 69 67 63 57 61 51 45 41 40 39 41 42 41 46 48 42 35 30 29 31 30 35 36 40 42 39 35 36 34 32 32 30 27 28 25 27 26 24 22 21 21 22 18 15
73 69 67 64 68 61 56 57 52 48 44 44 48 48 48 51 46 37 35 33 33 34 37 39 42 43 37 34 34 35 34 32 32 30 28 28 29 28 30 28 25 23 22 20 17
75 70 67 67 68 65 62 63 58 57 59 55 51 49 53 49 44 39 38 39 35 37 40 42 44 42 35 34 35 38 36 34 33 32 30 31 31 29 27 31 28 27 24 23 20
79 74 69 72 65 70 68 62 60 60 59 56 56 54 48 44 42 40 39 38 38 37 43 42 46 42 37 34 36 37 39 36 34 34 34 34 36 30 33 30 31 31 30 27 24
83 76 76 73 70 68 69 68 64 61 61 57 59 57 49 44 43 42 37 43 40 39 46 44 46 44 37 36 33 36 42 39 37 34 36 37 39 32 37 35 32 34 34 31 32
83 81 81 76 72 69 67 66 60 55 53 54 53 47 46 43 44 45 41 45 43 41 48 48 48 47 41 39 34 35 41 41 41 37 35 37 40 42 37 39 37 37 37 37 36
81 84 79 77 75 73 68 68 62 58 55 53 54 52 50 49 48 47 46 50 46 44 51 51 52 50 43 40 38 37 37 41 40 42 38 39 40 44 43 40 40 40 41 41 41
79 77 79 75 76 75 73 68 65 61 60 57 53 52 53 54 51 51 49 52 50 48 53 52 53 53 47 44 39 39 41 42 43 42 42 41 44 48 44 46 46 44 44 46 45
77 80 79 78 77 74 71 71 68 64 64 61 60 57 58 54 59 54 50 52 52 50 51 54 59 56 50 48 42 39 45 45 47 46 45 46 47 49 48 48 50 51 50 50 51
Wind_Direction
220 219 223 230 229 229 228 229 230 230 232 238 236 249 265 284 285 296 304 312 321 309 309 287 332 324 325 324 330 320 303 284 284 279 281 277 283 278 276 282 269 266 263 268 269
219 223 224 232 229 228 231 224 232 232 235 240 245 249 259 275 290 297 302 307 309 316 312 305 304 313 316 330 329 308 308 291 280 283 272 273 286 288 284 281 282 281 273 279 274
220 221 224 230 234 235 229 230 230 237 234 241 247 260 262 265 284 296 297 300 308 313 308 306 310 305 307 322 308 299 307 300 289 288 281 275 274 284 284 285 284 282 277 276 281
220 222 225 231 231 235 235 235 235 237 251 245 240 258 259 260 288 291 294 294 303 304 309 296 303 306 332 319 317 303 304 294 286 286 291 292 292 287 284 284 282 283 283 279 282
222 220 222 227 229 234 236 239 235 237 235 238 257 258 255 270 282 282 283 293 299 305 304 297 303 307 329 321 317 317 300 288 290 292 294 294 291 288 288 285 282 280 281 282 281
223 226 229 227 228 235 236 239 235 231 238 242 250 258 264 271 278 272 287 289 296 301 297 287 288 318 323 316 311 304 300 294 300 299 298 296 294 292 290 287 283 280 278 273 272
224 226 229 231 228 233 239 242 241 233 237 241 250 256 265 266 273 275 277 290 292 299 284 282 315 315 311 307 305 301 297 296 299 299 295 292 291 288 285 284 281 276 273 269 265
226 226 227 231 233 232 235 244 242 239 241 255 255 264 266 270 273 270 281 289 302 290 287 302 296 303 304 307 305 299 301 306 307 304 302 297 293 290 286 284 283 279 274 268 262
225 226 227 230 234 236 236 240 246 246 244 254 261 264 269 269 270 272 278 295 290 281 284 289 301 299 305 306 303 306 310 308 312 312 309 305 301 295 287 283 282 282 274 268 266
224 226 226 231 236 236 237 239 243 247 248 255 262 265 265 264 268 272 288 278 276 297 304 304 300 300 305 304 305 311 314 316 315 312 309 304 300 296 289 284 282 277 274 271 267
225 228 229 229 234 234 238 237 240 246 247 255 259 260 266 266 268 270 258 270 283 291 296 299 291 301 303 300 308 314 319 318 317 312 309 305 302 296 294 290 286 281 276 272 266
229 231 231 233 230 230 234 235 242 246 247 250 254 257 257 256 257 257 258 276 283 287 293 284 299 305 299 306 308 322 319 319 315 312 318 321 321 314 307 298 286 283 279 274 270
228 231 233 234 233 233 233 230 233 239 241 243 244 249 256 242 247 253 267 274 284 288 280 290 301 298 298 310 317 315 319 318 315 315 327 346 4 7 312 314 305 291 285 281 277
230 226 232 235 238 234 233 231 234 238 240 240 243 244 248 248 260 266 267 274 284 281 284 293 295 291 294 304 312 318 320 316 316 322 338 5 11 89 310 341 327 310 297 293 285
229 229 234 236 236 226 231 232 231 240 237 232 232 235 239 248 259 262 269 278 272 284 294 291 288 291 295 310 312 320 318 312 316 324 341 359 6 354 348 320 335 333 318 298 290
225 229 234 237 233 229 230 225 225 230 228 236 238 239 244 253 267 269 268 272 283 288 286 289 292 292 302 310 313 320 314 309 314 324 337 349 5 45 204 298 326 348 345 326 308
225 227 224 227 235 232 236 231 230 233 233 244 249 249 253 260 265 267 265 280 279 275 278 286 288 296 305 309 314 317 307 301 309 317 333 341 344 349 281 311 333 343 351 349 338
224 226 218 224 227 221 227 232 230 234 238 239 244 247 250 254 256 253 283 272 276 279 288 287 289 295 305 309 315 316 302 297 303 313 322 328 329 330 329 331 334 335 350 349 348
226 224 224 220 225 230 222 220 234 239 239 239 242 250 251 247 249 265 279 272 275 279 283 279 285 294 303 309 315 317 306 292 292 301 310 315 318 321 324 325 326 329 331 336 347
227 223 222 221 223 224 229 228 224 236 235 243 244 248 254 255 263 268 278 274 275 283 275 273 282 294 300 307 314 316 309 294 288 294 300 304 306 315 316 316 319 319 322 326 321
226 226 223 223 224 224 229 230 232 239 237 247 246 246 250 255 258 266 274 272 272 275 266 271 282 293 299 305 311 313 308 294 286 287 291 296 298 302 308 308 310 311 312 315 315
225 226 228 224 227 226 230 231 235 239 248 245 251 260 253 253 254 262 265 263 266 268 265 272 282 291 297 299 309 312 304 296 288 287 290 290 292 302 301 301 304 305 305 305 309
226 226 230 229 230 231 231 236 237 241 245 246 247 251 251 251 254 259 263 263 264 263 265 269 278 286 290 292 304 305 308 297 289 289 288 290 289 292 295 298 302 303 298 299 300
226 228 231 232 232 233 235 239 242 242 237 241 242 241 249 252 255 257 259 263 264 260 262 267 275 280 286 288 293 299 306 304 292 284 287 291 293 292 291 295 299 296 299 299 297
227 228 232 233 233 235 236 238 241 242 244 248 245 246 248 252 256 257 261 262 263 260 261 265 272 277 281 284 290 295 297 303 303 286 285 285 289 290 293 294 293 293 296 294 294
226 228 229 230 233 236 236 238 238 240 244 244 244 244 248 248 255 256 256 260 261 261 262 266 272 276 281 282 287 294 292 300 302 296 283 282 286 287 291 294 293 294 292 290 292
225 228 229 230 232 234 234 236 238 240 243 246 248 251 248 252 252 253 253 259 261 258 260 264 269 272 277 280 284 285 284 296 297 300 294 282 281 284 287 290 292 292 291 291 290
Height
10897 10901 10905 10910 10915 10919 10922 10926 10928 10931 10936 10938 10941 10942 10944 10945 10946 10945 10946 10945 10945 10944 10944 10942 10941 10941 10940 10939 10938 10934 10929 10926 10923 10922 10921 10919 10916 10916 10915 10913 10912 10913 10912 10910 10908
10890 10895 10900 10905 10909 10914 10918 10921 10923 10927 10932 10934 10936 10938 10940 10942 10942 10942 10942 10942 10942 10941 10941 10941 10939 10938 10937 10936 10933 10928 10925 10922 10919 10917 10915 10913 10910 10910 10909 10907 10906 10905 10906 10903 10900
10883 10889 10894 10899 10904 10908 10913 10917 10920 10923 10927 10930 10932 10934 10936 10937 10939 10939 10939 10938 10938 10938 10937 10937 10936 10933 10932 10931 10927 10924 10921 10917 10913 10910 10908 10905 10903 10902 10901 10900 10897 10896 10897 10894 10893
10876 10883 10888 10893 10898 10903 10908 10911 10915 10919 10924 10923 10926 10928 10930 10932 10935 10935 10935 10934 10934 10933 10933 10932 10930 10927 10926 10923 10922 10919 10916 10913 10907 10904 10901 10898 10895 10895 10892 10890 10887 10886 10888 10886 10887
10868 10876 10882 10887 10893 10897 10901 10905 10909 10914 10917 10919 10922 10924 10926 10928 10930 10930 10930 10930 10929 10928 10925 10924 10923 10921 10920 10917 10916 10914 10911 10906 10902 10898 10893 10889 10883 10883 10880 10878 10877 10876 10877 10876 10876
10862 10869 10875 10881 10887 10891 10895 10899 10903 10907 10911 10915 10917 10919 10921 10924 10924 10923 10925 10925 10925 10924 10922 10918 10916 10914 10912 10911 10909 10906 10904 10900 10895 10890 10885 10880 10872 10867 10862 10863 10863 10864 10864 10862 10862
10854 10862 10868 10874 10880 10885 10889 10893 10897 10901 10905 10908 10911 10914 10916 10919 10920 10920 10920 10920 10920 10918 10914 10913 10908 10908 10906 10904 10900 10898 10896 10893 10887 10883 10876 10867 10861 10854 10845 10841 10845 10849 10848 10847 10845
10846 10853 10860 10866 10873 10878 10883 10886 10891 10895 10899 10902 10905 10908 10910 10912 10914 10914 10915 10915 10914 10913 10908 10905 10905 10904 10900 10896 10892 10889 10886 10884 10876 10869 10862 10852 10847 10844 10834 10829 10829 10833 10831 10829 10829
10838 10845 10853 10859 10865 10871 10876 10880 10884 10888 10892 10895 10898 10901 10903 10905 10906 10908 10909 10909 10908 10905 10904 10902 10900 10896 10893 10889 10883 10879 10876 10870 10865 10854 10848 10841 10834 10834 10826 10822 10818 10819 10816 10817 10817
10829 10836 10844 10852 10857 10864 10868 10873 10877 10881 10885 10888 10891 10894 10896 10898 10900 10902 10903 10903 10900 10897 10898 10897 10893 10890 10886 10882 10878 10874 10867 10860 10851 10845 10838 10831 10826 10820 10816 10812 10810 10808 10806 10806 10808
10820 10828 10836 10844 10850 10856 10861 10866 10870 10874 10878 10881 10884 10887 10889 10892 10893 10896 10898 10894 10892 10892 10893 10891 10886 10883 10880 10875 10872 10867 10859 10851 10843 10837 10831 10823 10816 10811 10808 10805 10802 10798 10797 10798 10798
10813 10820 10828 10836 10842 10847 10853 10858 10863 10867 10871 10873 10877 10880 10882 10885 10887 10889 10889 10888 10888 10888 10887 10883 10879 10876 10873 10868 10864 10859 10854 10846 10838 10833 10826 10818 10810 10805 10801 10800 10796 10791 10789 10789 10791
10805 10814 10819 10826 10834 10839 10845 10851 10857 10860 10863 10866 10869 10874 10874 10877 10879 10881 10883 10882 10881 10881 10879 10875 10873 10870 10867 10863 10857 10854 10848 10841 10836 10830 10824 10817 10808 10800 10796 10794 10792 10788 10784 10784 10785
10794 10803 10810 10818 10826 10831 10836 10844 10848 10853 10856 10860 10862 10865 10869 10870 10872 10874 10875 10875 10874 10873 10871 10868 10867 10864 10861 10857 10853 10848 10841 10835 10832 10827 10821 10817 10812 10807 10804 10795 10788 10786 10782 10781 10780
10783 10794 10802 10809 10817 10823 10828 10835 10842 10844 10849 10852 10855 10857 10860 10862 10864 10865 10866 10867 10864 10864 10863 10862 10859 10857 10855 10851 10846 10841 10834 10830 10827 10821 10818 10815 10810 10800 10792 10790 10789 10782 10779 10778 10776
10776 10785 10793 10800 10807 10813 10819 10824 10830 10834 10841 10842 10845 10848 10851 10853 10856 10857 10859 10857 10857 10856 10855 10854 10853 10852 10850 10846 10840 10834 10828 10823 10821 10817 10813 10811 10807 10805 10809 10799 10790 10783 10777 10773 10771
10766 10776 10784 10790 10797 10804 10810 10816 10821 10825 10829 10833 10835 10839 10843 10846 10849 10850 10851 10850 10850 10848 10848 10848 10847 10845 10843 10840 10834 10829 10823 10819 10816 10812 10810 10806 10806 10806 10808 10799 10789 10782 10777 10772 10769
10755 10764 10774 10782 10788 10795 10800 10807 10812 10817 10821 10825 10829 10833 10836 10838 10840 10840 10841 10842 10841 10840 10841 10842 10841 10839 10836 10832 10828 10824 10818 10814 10810 10806 10805 10801 10801 10799 10797 10793 10787 10782 10778 10773 10769
10743 10753 10762 10771 10778 10784 10792 10798 10803 10810 10814 10817 10821 10824 10826 10829 10829 10830 10832 10834 10834 10833 10834 10834 10834 10833 10829 10825 10820 10817 10813 10809 10806 10803 10799 10797 10795 10792 10791 10788 10784 10780 10775 10773 10769
10732 10742 10751 10759 10766 10774 10782 10786 10795 10799 10803 10808 10812 10814 10816 10819 10819 10820 10823 10826 10826 10827 10826 10827 10827 10825 10821 10818 10814 10809 10807 10803 10799 10797 10795 10791 10789 10787 10782 10781 10779 10776 10772 10769 10766
10720 10729 10738 10747 10755 10763 10770 10776 10783 10787 10791 10796 10800 10803 10805 10807 10809 10811 10814 10817 10819 10820 10819 10820 10818 10818 10814 10809 10807 10802 10800 10795 10792 10790 10788 10785 10781 10781 10780 10775 10773 10771 10768 10765 10762
10707 10717 10725 10735 10743 10750 10757 10768 10772 10777 10781 10786 10788 10792 10796 10798 10800 10801 10805 10809 10810 10812 10811 10812 10810 10810 10807 10802 10799 10795 10791 10788 10785 10783 10779 10778 10774 10775 10771 10769 10767 10764 10762 10760 10757
10694 10708 10710 10722 10730 10737 10747 10752 10759 10766 10770 10775 10778 10782 10784 10786 10790 10792 10796 10798 10801 10803 10803 10804 10804 10801 10801 10796 10793 10789 10783 10779 10778 10775 10771 10769 10764 10768 10763 10760 10760 10756 10753 10752 10750
10681 10691 10700 10709 10717 10726 10734 10739 10747 10753 10758 10761 10767 10770 10773 10776 10780 10783 10786 10788 10791 10793 10793 10794 10794 10793 10792 10789 10787 10784 10776 10773 10770 10768 10766 10761 10756 10753 10756 10753 10751 10749 10746 10741 10740
10666 10675 10690 10695 10703 10712 10722 10728 10735 10740 10746 10751 10757 10759 10762 10767 10769 10772 10776 10776 10780 10782 10783 10784 10782 10782 10782 10779 10777 10775 10772 10764 10761 10758 10757 10753 10750 10744 10744 10744 10742 10740 10737 10734 10730
10652 10666 10674 10684 10689 10697 10706 10716 10721 10730 10733 10739 10745 10748 10751 10754 10759 10759 10765 10766 10768 10770 10771 10772 10771 10770 10770 10768 10768 10765 10757 10756 10753 10749 10748 10745 10742 10735 10735 10731 10730 10728 10725 10722 10719
10639 10647 10659 10670 10676 10686 10694 10700 10708 10718 10720 10728 10730 10737 10736 10746 10743 10747 10753 10755 10756 10759 10759 10761 10758 10758 10759 10755 10757 10757 10747 10745 10742 10738 10736 10735 10732 10728 10725 10722 10717 10714 10712 10708 10705